Kincheloe, MI

6:03 AM EDT on July 30, 2016 (GMT -0400)
Chippewa County International

Weather History for KCIU - June, 2012

Change the Weather History Date:

Monday, June 25, 2012

  Actual Average Record
Temperature  
Mean Temperature 58 °F -  
Max Temperature 69 °F 75 °F 93 °F (2003)
Min Temperature 48 °F 49 °F 30 °F (1979)
Degree Days  
Heating Degree Days 6    
Growing Degree Days 8 (Base 50)    
Moisture  
Dew Point 46 °F    
Average Humidity 63    
Maximum Humidity 100    
Minimum Humidity 37    
Precipitation  
Precipitation 0.00 in - - ()
Sea Level Pressure  
Sea Level Pressure 30.08 in    
Wind  
Wind Speed 10 mph (NW)    
Max Wind Speed 21 mph    
Max Gust Speed 26 mph    
Visibility 10 miles    
Events      
Averages and records for this station are not official NWS values.
T = Trace of Precipitation, MM = Missing Value Source: NWS Daily Summary

Daily Weather History Graph

Daily Weather History Graph

Search for Another Location

Airport or City:

Trip Planner

Search our weather history database for the weather conditions in past years. The results will help you decide how hot, cold, wet, or windy it might be!

Date:

Astronomy

Jun. 25, 2012 Rise Set
Actual Time 5:47 AM EDT 9:33 PM EDT
Civil Twilight 5:08 AM EDT 10:12 PM EDT
Nautical Twilight 4:15 AM EDT 11:05 PM EDT
Astronomical Twilight 3:01 AM EDT 12:19 AM EDT
Moon 12:19 PM EDT (6/25) 12:11 AM EDT (6/25)
Length of Visible Light 17h 04m
Length of Day
15h 46m
Waxing Crescent, 34% of the Moon is Illuminated
Jun 25
Waxing Crescent
Jun 26
First Quarter
Jul 3
Full
Jul 10
Last Quarter
Jul 19
New

Hourly Weather History & Observations

Time (EDT) Temp. Dew Point Humidity Pressure Visibility Wind Dir Wind Speed Gust Speed Precip Events Conditions
12:15 AM 53.6 °F 48.2 °F 82% 30.04 in 10.0 mi NNW 8.1 mph - N/A   Clear
12:35 AM 51.8 °F 48.2 °F 88% 30.04 in 10.0 mi NNW 8.1 mph - N/A   Clear
12:55 AM 51.8 °F 48.2 °F 88% 30.05 in 10.0 mi NNW 6.9 mph - N/A   Clear
1:15 AM 51.8 °F 48.2 °F 88% 30.05 in 10.0 mi NNW 6.9 mph - N/A   Clear
1:35 AM 51.8 °F 48.2 °F 88% 30.06 in 10.0 mi NNW 6.9 mph - N/A   Clear
1:55 AM 51.8 °F 48.2 °F 88% 30.06 in 10.0 mi NNW 6.9 mph - N/A   Clear
2:15 AM 51.8 °F 48.2 °F 88% 30.07 in 10.0 mi NNW 6.9 mph - N/A   Clear
2:35 AM 51.8 °F 48.2 °F 88% 30.07 in 10.0 mi NW 5.8 mph - N/A   Clear
2:55 AM 51.8 °F 48.2 °F 88% 30.07 in 10.0 mi NNW 5.8 mph - N/A   Clear
3:15 AM 51.8 °F 48.2 °F 88% 30.08 in 10.0 mi NNW 5.8 mph - N/A   Clear
3:35 AM 51.8 °F 48.2 °F 88% 30.08 in 10.0 mi NNW 5.8 mph - N/A   Clear
3:55 AM 51.8 °F 48.2 °F 88% 30.08 in 10.0 mi NNW 4.6 mph - N/A   Clear
4:15 AM 51.8 °F 50.0 °F 94% 30.08 in 10.0 mi NW 5.8 mph - N/A   Clear
4:35 AM 51.8 °F 50.0 °F 94% 30.08 in 10.0 mi NNW 6.9 mph - N/A   Clear
4:55 AM 50.0 °F 50.0 °F 100% 30.08 in 10.0 mi NW 5.8 mph - N/A   Clear
5:15 AM 50.0 °F 50.0 °F 100% 30.08 in 10.0 mi NW 5.8 mph - N/A   Clear
5:35 AM 51.8 °F 50.0 °F 94% 30.09 in 10.0 mi NW 5.8 mph - N/A   Clear
5:55 AM 50.0 °F 48.2 °F 94% 30.10 in 10.0 mi West 3.5 mph - N/A   Clear
6:15 AM 48.2 °F 48.2 °F 100% 30.10 in 10.0 mi West 4.6 mph - N/A   Clear
6:35 AM 48.2 °F 46.4 °F 93% 30.11 in 10.0 mi West 3.5 mph - N/A   Clear
6:55 AM 51.8 °F 50.0 °F 94% 30.12 in 10.0 mi WNW 4.6 mph - N/A   Partly Cloudy
7:15 AM 53.6 °F 51.8 °F 94% 30.12 in 10.0 mi NW 8.1 mph - N/A   Clear
7:35 AM 55.4 °F 51.8 °F 88% 30.12 in 10.0 mi WNW 6.9 mph - N/A   Clear
7:55 AM 55.4 °F 51.8 °F 88% 30.12 in 10.0 mi NW 6.9 mph - N/A   Clear
8:15 AM 55.4 °F 51.8 °F 88% 30.13 in 10.0 mi NW 6.9 mph - N/A   Clear
8:35 AM 57.2 °F 51.8 °F 82% 30.14 in 10.0 mi NW 8.1 mph - N/A   Clear
8:55 AM 59.0 °F 51.8 °F 77% 30.13 in 10.0 mi WNW 6.9 mph - N/A   Clear
9:15 AM 60.8 °F 50.0 °F 68% 30.13 in 10.0 mi NNW 9.2 mph - N/A   Clear
9:35 AM 62.6 °F 48.2 °F 59% 30.13 in 10.0 mi NW 10.4 mph - N/A   Clear
9:55 AM 62.6 °F 48.2 °F 59% 30.13 in 10.0 mi NW 11.5 mph - N/A   Clear
10:15 AM 62.6 °F 48.2 °F 59% 30.13 in 10.0 mi North 11.5 mph - N/A   Clear
10:35 AM 62.6 °F 48.2 °F 59% 30.13 in 10.0 mi WNW 11.5 mph 19.6 mph N/A   Clear
10:55 AM 64.4 °F 48.2 °F 56% 30.13 in 10.0 mi NW 12.7 mph 21.9 mph N/A   Clear
11:15 AM 64.4 °F 48.2 °F 56% 30.12 in 10.0 mi NNW 17.3 mph 21.9 mph N/A   Clear
11:35 AM 64.4 °F 46.4 °F 52% 30.12 in 10.0 mi NW 16.1 mph 20.7 mph N/A   Clear
11:55 AM 64.4 °F 46.4 °F 52% 30.12 in 10.0 mi NNW 17.3 mph 20.7 mph N/A   Clear
12:15 PM 64.4 °F 44.6 °F 49% 30.12 in 10.0 mi NNW 17.3 mph 23.0 mph N/A   Clear
12:35 PM 64.4 °F 46.4 °F 52% 30.11 in 10.0 mi NW 17.3 mph 25.3 mph N/A   Clear
12:55 PM 64.4 °F 46.4 °F 52% 30.11 in 10.0 mi NW 18.4 mph 25.3 mph N/A   Clear
1:15 PM 66.2 °F 46.4 °F 49% 30.11 in 10.0 mi NW 17.3 mph 21.9 mph N/A   Clear
1:35 PM 66.2 °F 44.6 °F 46% 30.10 in 10.0 mi NW 18.4 mph 25.3 mph N/A   Clear
1:55 PM 66.2 °F 42.8 °F 43% 30.10 in 10.0 mi NW 19.6 mph 25.3 mph N/A   Clear
2:15 PM 66.2 °F 41.0 °F 40% 30.09 in 10.0 mi NNW 17.3 mph 24.2 mph N/A   Clear
2:35 PM 66.2 °F 44.6 °F 46% 30.09 in 10.0 mi NW 12.7 mph - N/A   Clear
2:55 PM 66.2 °F 44.6 °F 46% 30.08 in 10.0 mi NW 18.4 mph 24.2 mph N/A   Clear
3:15 PM 68.0 °F 42.8 °F 40% 30.08 in 10.0 mi NNW 16.1 mph 20.7 mph N/A   Clear
3:35 PM 68.0 °F 42.8 °F 40% 30.07 in 10.0 mi NW 17.3 mph 21.9 mph N/A   Clear
3:55 PM 68.0 °F 42.8 °F 40% 30.07 in 10.0 mi NW 18.4 mph 25.3 mph N/A   Clear
4:15 PM 68.0 °F 42.8 °F 40% 30.07 in 10.0 mi NW 18.4 mph 24.2 mph N/A   Clear
4:35 PM 68.0 °F 42.8 °F 40% 30.07 in 10.0 mi NW 17.3 mph 23.0 mph N/A   Clear
4:55 PM 69.8 °F 42.8 °F 38% 30.06 in 10.0 mi NW 18.4 mph 23.0 mph N/A   Clear
5:15 PM 69.8 °F 44.6 °F 40% 30.06 in 10.0 mi NW 16.1 mph 21.9 mph N/A   Clear
5:35 PM 69.8 °F 42.8 °F 38% 30.06 in 10.0 mi WNW 18.4 mph 26.5 mph N/A   Clear
5:55 PM 69.8 °F 42.8 °F 38% 30.06 in 10.0 mi NW 20.7 mph 26.5 mph N/A   Clear
6:15 PM 68.0 °F 42.8 °F 40% 30.06 in 10.0 mi NW 19.6 mph 23.0 mph N/A   Clear
6:35 PM 68.0 °F 41.0 °F 37% 30.07 in 10.0 mi NW 15.0 mph 26.5 mph N/A   Clear
6:55 PM 68.0 °F 41.0 °F 37% 30.06 in 10.0 mi NW 15.0 mph 23.0 mph N/A   Clear
7:15 PM 66.2 °F 39.2 °F 37% 30.05 in 10.0 mi NW 20.7 mph 26.5 mph N/A   Clear
7:35 PM 66.2 °F 41.0 °F 40% 30.06 in 10.0 mi NW 16.1 mph 21.9 mph N/A   Clear
7:55 PM 66.2 °F 39.2 °F 37% 30.06 in 10.0 mi NW 18.4 mph 24.2 mph N/A   Clear
8:15 PM 64.4 °F 39.2 °F 40% 30.06 in 10.0 mi NW 13.8 mph - N/A   Clear
8:35 PM 64.4 °F 39.2 °F 40% 30.06 in 10.0 mi NW 13.8 mph 18.4 mph N/A   Clear
8:55 PM 62.6 °F 39.2 °F 42% 30.05 in 10.0 mi NW 13.8 mph 18.4 mph N/A   Clear
9:15 PM 62.6 °F 39.2 °F 42% 30.05 in 10.0 mi NW 11.5 mph - N/A   Clear
9:35 PM 60.8 °F 41.0 °F 48% 30.05 in 10.0 mi NW 11.5 mph - N/A   Clear
9:55 PM 60.8 °F 41.0 °F 48% 30.05 in 10.0 mi NW 12.7 mph - N/A   Clear
10:15 PM 60.8 °F 41.0 °F 48% 30.05 in 10.0 mi NW 8.1 mph - N/A   Clear
10:35 PM 59.0 °F 42.8 °F 55% 30.05 in 10.0 mi NW 6.9 mph - N/A   Clear
10:55 PM 57.2 °F 42.8 °F 59% 30.06 in 10.0 mi WNW 6.9 mph - N/A   Clear
11:15 PM 57.2 °F 42.8 °F 59% 30.06 in 10.0 mi WNW 6.9 mph - N/A   Clear
11:35 PM 57.2 °F 42.8 °F 59% 30.06 in 10.0 mi WNW 8.1 mph - N/A   Clear
11:55 PM 57.2 °F 42.8 °F 59% 30.06 in 10.0 mi NW 9.2 mph - N/A   Clear